Regional Weather Roundup
Issued by NWS

Home | Current Version | Previous Version | Graphics & Text | Print | Product List | Glossary Off
Versions: 1 2 3 4 5 6 7 8 9 10 11 12 13 14 15 16 17 18 19 20 21 22 23 24 25 26 27 28 29 30 31 32 33 34 35 36 37 38 39 40 41 42 43 44 45 46 47 48 49 50

000
ASUS43 KMPX 052010
RWRMN
WEATHER ROUNDUP FOR MINNESOTA
NATIONAL WEATHER SERVICE TWIN CITIES/CHANHASSEN MN
300 PM CDT THU MAY 05 2016


NOTE: "FAIR" INDICATES FEW OR NO CLOUDS BELOW 12,000 FEET WITH NO
SIGNIFICANT WEATHER AND/OR OBSTRUCTIONS TO VISIBILITY. N/A MEANS
CURRENT SKY AND/OR WEATHER CONDITIONS ARE NOT AVAILABLE.

MNZ060>063-068>070-052100-
   Twin Cities Metro

CITY           SKY/WX    TMP DP  RH WIND       PRES   REMARKS
TWIN CITIES    MOSUNNY   73  31  21 SW12      29.98F
ST PAUL        SUNNY     70  37  29 SW9       29.98F
CRYSTAL        SUNNY     74  32  21 SW12      29.96F
BLAINE         MOSUNNY   73  34  23 W8        29.97F
EDEN PRAIRIE   SUNNY     75  32  20 SW10      29.97F
SOUTH ST PAUL  SUNNY     71  35  27 SW9       29.97F
LAKE ELMO      FAIR      70  37  30 SW13      29.99F
$$
MNZ001>005-007-008-013>017-022>024-027-028-052100-
   Northwest Minnesota

CITY           SKY/WX    TMP DP  RH WIND       PRES   REMARKS
BEMIDJI        SUNNY     84  42  22 W12G26    29.83F
HALLOCK        SUNNY     91  21   8 NW16      29.70F
ROSEAU         SUNNY     91  37  15 W12G22    29.71F
WARROAD        SUNNY     90  52  27 SW16G28   29.71F
THIEF RVR FALL MOSUNNY   90  37  15 SW18G31   29.78F
CROOKSTON      SUNNY     90  37  15 W15G30    29.78S
FOSSTON        SUNNY     86  39  19 SW16G28   29.81F
DETROIT LAKES  SUNNY     82  43  24 W8G17     29.88S
MOORHEAD       SUNNY     90  36  14 W17G24    29.82F
PARK RAPIDS    SUNNY     84  42  22 W15G23    29.87F
MAHNOMEN       FAIR      86  42  20 SW13G23   29.82F
$$
MNZ006-009>011-018-025>026-052100-
   North Central Minnesota

CITY           SKY/WX    TMP DP  RH WIND       PRES   REMARKS
BAUDETTE       SUNNY     87  44  22 W17G26    29.73F
FLAG ISLAND    CLOUDY    82  39  21 W9G21     29.68F
INTL FALLS     SUNNY     83  43  24 SW10G24   29.75F
WASKISH        SUNNY     82  48  30 SW13G22   29.78F
BIG FORK       SUNNY     84  41  21 SW14G20   29.81F
LONGVILLE      SUNNY     82  37  20 W10G17    29.86F
GRAND RAPIDS   SUNNY     79  39  24 SW10G21   29.86F
CRANE LAKE     SUNNY     79  36  21 SW7G18    29.78F
ORR            SUNNY     82  30  15 SW10      29.77S
COOK           SUNNY     79  39  24 W15G22    29.81F
WALKER         FAIR      82  41  23 SW16      29.84F
$$
MNZ012-019>021-037-052100-
   Northeast Minnesota

CITY           SKY/WX    TMP DP  RH WIND       PRES   REMARKS
DULUTH         SUNNY     73  37  27 SW15      29.88F
ELY            SUNNY     75  36  23 SW10G21   29.81F
HIBBING          N/A     77  38  24 W8G20     29.83F
EVELETH        SUNNY     77  36  22 SW13      29.84F
DULUTH HARBOR  SUNNY     72  37  28 SW16      29.87F
TWO HARBORS    SUNNY     73  46  38 SW12G21   29.85F
SILVER BAY     SUNNY     68  36  30 S17G23    29.84F
GRAND MARAIS     N/A     42  36  79 SW7       29.88F
G MARAIS ARPRT CLOUDY    61  27  27 S10G20    29.88F
$$
MNZ029>031-032-039>041-046>048-054>057-064-052100-
   West Central Minnesota

CITY           SKY/WX    TMP DP  RH WIND       PRES   REMARKS
FERGUS FALLS   SUNNY     84  45  24 W15G22    29.83F
WHEATON        SUNNY     88  46  23 SW14      29.90F
MORRIS         SUNNY     84  43  23 W14G21    29.90F
ALEXANDRIA     SUNNY     80  40  23 SW15      29.94F
ELBOW LAKE     FAIR      84  43  23 SW13G23   29.89F
WADENA         SUNNY     81  45  28 SW17G23   29.89F
GLENWOOD       SUNNY     81  39  22 S12G21    29.94F
APPLETON       SUNNY     84  37  18 SW10      29.91F
BENSON         SUNNY     82  37  20 W10G16    29.92F
ORTONVILLE     SUNNY     84  39  20 W9        29.91F
MADISON        SUNNY     82  39  21 S6G20     29.93F
WILLMAR        FAIR      81  39  22 S8G17     29.96F
$$
MNZ033>034-036-042>043-049>051-058-059-052100-
   Central Minnesota

CITY           SKY/WX    TMP DP  RH WIND       PRES   REMARKS
ST CLOUD       SUNNY     77  33  20 SW14G21   29.94F
SAUK CENTRE      N/A     79  40  24 SW12G21   29.94S
PAYNESVILLE    SUNNY     78  32  18 SW12G17   29.96F
AITKIN         SUNNY     81  25  12 SW13G18   29.88S
PINE RIVER     SUNNY     81  46  30 SW12G18   29.91F
BRAINERD       SUNNY     80  37  21 W14G23    29.90F
STAPLES        SUNNY     81  37  21 SW14G20   29.90F
LONG PRAIRIE   FAIR      79  39  24 SW14G22   29.93F
LITTLE FALLS   SUNNY     77  34  20 SW7       29.92F
LITCHFIELD     SUNNY     79  34  19 SW7       29.96F
BUFFALO        SUNNY     73  32  21 S9G16     29.97F
MAPLE LAKE     SUNNY     77  39  25 SW5       29.97F
HUTCHINSON     SUNNY     78  37  22 S10       29.98F
$$
MNZ037-044-045-052-053-052100-
   East Central Minnesota

CITY           SKY/WX    TMP DP  RH WIND       PRES   REMARKS
PRINCETON      SUNNY     77  36  22 S9        29.95F
MORA           SUNNY     72  36  26 W13G20    29.94F
CAMBRIDGE      SUNNY     75  48  38 S12G17    29.93F
RUSH CITY      SUNNY     73  36  26 SW9       29.94F
MOOSE LAKE     SUNNY     77  37  24 SW14G20   29.87F
HINCKLEY       CLOUDY    73  37  27 S14G20    29.92F
CLOQUET        SUNNY     73  34  23 S13       29.88F
MCGREGOR       SUNNY     73  37  27 SW16      29.89F
$$
MNZ071>073-080-081-089-090-097-098-052100-
   Southwest Minnesota

CITY           SKY/WX    TMP DP  RH WIND       PRES   REMARKS
MONTEVIDEO     SUNNY     82  43  24 SW12      29.95F
GRANITE FALLS  SUNNY     84  39  20 SW12G17   29.96F
CANBY          SUNNY     83  45  26 SW14      29.95F
MARSHALL       SUNNY     80  42  25 SW13G21   29.96F
REDWOOD FALLS  SUNNY     81  37  20 SW14      29.96F
OLIVIA         SUNNY     77  37  24 SW8G16    29.96F
PIPESTONE      SUNNY     75  37  25 SW12      30.01S
WINDOM         SUNNY     75  36  23 SW7       30.00F
WORTHINGTON    SUNNY     74  38  27 SW8       30.03S
JACKSON        SUNNY     73  30  20 SW10G16   30.02F
TRACY          SUNNY     79  41  26 W12G18    29.99S
SLAYTON        SUNNY     76  37  24 SW12G21   30.01F
$$
MNZ065>067-074>077-082>085-091>093-052100-
   South Central Minnesota

CITY           SKY/WX    TMP DP  RH WIND       PRES   REMARKS
MANKATO        SUNNY     73  30  20 SW7       30.00F
NEW ULM        SUNNY     75  34  22 W7        29.98F
ST JAMES       SUNNY     70  34  26 SW5G16    30.00F
FAIRMONT       SUNNY     72  34  25 SW8       30.01F
GLENCOE        SUNNY     76  39  26 SW9       29.97F
FARIBAULT      SUNNY     73  34  23 SW8       30.00F
OWATONNA       LGT RAIN  70  30  23 W5        30.01F
WASECA         SUNNY     72  32  23 SW10      30.02F
ALBERT LEA     SUNNY     72  30  21 W7        30.01F
$$
MNZ078>079-086>088-094>096-052100-
   Southeast Minnesota

CITY           SKY/WX    TMP DP  RH WIND       PRES   REMARKS
ROCHESTER      SUNNY     69  35  28 NW5       30.02F
RED WING       PTSUNNY   70  30  23 W6        29.98F
STANTON        MOSUNNY   69  32  25 SW10      29.98F
DODGE CENTER   SUNNY     72  34  25 NW6       30.02S
WINONA         PTSUNNY   68  36  30 NW5       30.02S
AUSTIN         SUNNY     68  36  30 SW6       30.01F
PRESTON        PTSUNNY   64  34  31 NW8       30.03F
$$
ABBREVIATIONS USED IN REMARKS
   TC - TEMPERATURES IN CELSIUS
  WCI - WIND CHILL INDEX
   HX - HEAT INDEX
  VSB - VISIBILITY
$$



USA.gov is the U.S. government's official web portal to all federal, state and local government web resources and services.